Wind_Speed
26 26 27 27 26 26 26 26 25 25 25 26 29 30 31 30 30 31 31 31 30 29 27 24 21 18 15 14 12 11 11 12 12 12 13 14 14 14 14 13 12 12 12 12 12 11 11 11 10 10 9 8 8 9 10 11 12 12 11 10 10 11 12 13 14 15 15 14 14 15 15 17 19 20 20 19 19 20 21 23 25 28 31 33 34
27 27 27 28 27 26 27 27 27 26 26 27 29 30 31 31 31 31 31 31 31 30 30 28 25 21 18 16 14 12 12 13 12 12 12 13 14 13 13 12 12 12 12 12 12 12 11 10 10 9 9 10 11 12 12 12 11 11 10 11 12 13 14 15 15 15 16 16 15 15 15 17 19 21 22 22 21 21 22 23 25 28 31 32 30
27 27 27 28 28 27 27 27 28 28 28 28 29 30 30 31 31 31 31 31 30 30 31 30 28 25 22 20 17 15 14 14 13 13 12 12 13 13 12 12 12 12 12 12 12 11 10 9 10 11 12 13 13 13 12 12 11 11 12 13 14 15 16 16 16 16 17 17 17 16 16 17 19 21 23 23 23 22 23 24 26 29 31 30 25
27 27 27 27 28 27 26 26 27 27 26 27 27 28 29 29 30 30 30 30 30 30 31 31 30 28 26 24 21 19 17 16 15 14 13 12 12 12 12 12 12 12 11 11 10 10 10 12 14 15 15 15 14 13 12 12 12 13 14 14 16 16 17 16 16 17 17 18 19 18 18 18 19 21 22 24 24 23 23 25 28 30 30 28 23
27 27 27 28 28 27 27 26 26 26 25 25 26 28 29 30 30 29 30 30 30 30 31 31 30 30 29 27 25 23 21 19 18 16 15 14 13 12 12 12 12 11 11 12 13 14 15 16 17 17 16 15 14 14 13 14 14 14 15 16 16 17 16 16 17 18 19 20 20 20 19 19 19 20 22 24 23 22 24 27 30 30 29 26 24
28 28 28 29 29 29 28 28 28 27 27 26 27 29 30 30 30 29 29 29 30 30 30 30 30 30 30 29 28 27 25 22 20 19 17 15 14 14 13 13 14 14 16 17 18 18 18 19 19 18 17 16 15 15 15 15 15 15 16 16 17 17 16 16 18 19 20 21 21 20 19 19 19 20 22 23 22 22 26 29 30 29 27 26 26
27 28 28 29 29 29 29 29 29 30 30 29 29 30 30 30 30 30 30 30 30 30 30 30 30 30 31 30 29 29 27 25 23 21 20 19 18 18 18 19 19 20 21 21 20 19 19 20 19 19 18 17 16 16 15 15 15 15 16 16 17 17 16 17 19 20 21 21 21 19 18 18 19 21 22 21 22 24 28 30 29 27 27 27 28
27 27 28 28 28 29 29 29 30 30 31 31 31 31 31 31 31 31 32 32 32 31 30 30 30 31 30 30 30 30 29 28 27 26 25 24 24 23 23 23 22 22 22 22 21 20 20 20 19 18 17 16 16 15 14 14 14 15 15 16 17 16 16 17 19 20 21 21 20 18 18 19 20 21 21 21 23 26 29 29 27 27 27 28 30
26 26 26 27 27 27 28 28 29 29 30 30 30 30 30 30 31 32 33 33 33 32 31 30 30 30 30 30 30 30 30 29 29 29 28 28 27 26 25 24 23 23 23 22 21 21 19 19 18 17 16 15 15 14 14 14 14 14 15 16 17 16 16 18 19 20 21 21 20 18 18 19 20 20 20 22 25 27 28 28 26 27 28 29 31
24 24 25 25 25 25 26 27 27 27 28 28 28 28 29 30 31 32 33 33 33 32 31 31 31 30 30 30 30 30 30 29 29 29 29 28 28 27 26 25 24 24 23 22 21 20 18 17 16 16 15 14 14 14 14 14 14 14 15 16 17 17 16 18 20 20 20 20 19 18 19 19 20 20 21 23 25 27 28 27 27 28 29 31 32
23 23 24 24 24 24 25 25 25 25 25 25 26 27 28 28 29 30 31 31 31 31 30 30 31 31 30 30 29 29 29 29 28 28 28 28 28 28 26 25 24 23 22 21 20 19 17 15 15 15 14 14 14 14 14 14 15 14 15 16 17 17 17 18 20 20 19 19 19 19 20 20 20 20 21 23 25 26 27 27 28 29 31 32 33
23 23 23 23 23 23 23 23 23 23 23 24 24 25 26 27 27 28 28 29 29 29 29 29 29 30 29 29 29 28 28 28 28 27 27 27 27 26 25 24 23 22 21 20 18 17 15 14 14 14 14 14 14 14 15 15 15 15 15 17 18 18 17 18 20 19 19 19 19 19 20 20 20 20 22 23 24 26 27 28 29 30 32 33 34
23 24 24 23 23 23 22 22 21 22 22 23 23 23 24 24 25 25 26 26 27 27 27 27 27 27 27 27 27 27 27 27 26 26 26 26 26 25 23 22 21 20 19 18 16 15 14 13 13 14 14 14 14 14 15 15 16 16 16 17 18 18 17 18 19 19 18 19 19 20 20 20 20 20 21 23 24 26 28 29 30 31 32 32 34
23 23 23 22 22 22 22 21 21 21 21 22 22 22 23 23 23 23 23 24 25 25 25 25 25 25 25 25 25 25 25 25 24 24 24 24 24 23 21 20 19 18 18 16 15 14 13 13 13 13 13 13 14 14 15 15 16 16 16 16 17 17 17 18 19 18 19 19 19 20 20 20 20 20 22 23 25 27 29 30 31 31 31 32 33
22 22 22 22 22 22 21 21 21 21 21 21 21 21 22 22 21 21 21 22 22 23 24 23 23 23 23 23 23 23 23 23 23 23 22 22 21 21 20 19 18 17 16 15 15 14 13 12 13 13 13 13 14 14 15 16 16 16 16 16 16 17 17 19 19 18 19 20 20 20 20 21 21 21 22 24 25 27 30 31 31 31 31 32 34
20 20 21 21 21 21 21 21 21 21 21 21 21 21 21 21 21 21 21 21 21 21 22 22 22 22 21 22 22 22 22 22 22 21 21 20 20 19 19 18 17 16 16 15 14 14 13 13 13 13 13 14 14 15 15 16 16 15 15 15 16 17 18 19 18 18 19 20 20 20 20 21 21 22 23 24 26 28 30 32 32 31 31 32 34
18 19 20 21 21 21 21 21 21 20 20 20 20 20 20 20 20 21 20 20 20 20 21 21 21 21 20 20 21 21 20 20 21 20 20 19 18 18 18 17 17 16 15 15 15 15 14 14 14 14 14 15 16 16 16 16 15 15 15 15 16 17 18 18 17 18 20 21 21 21 21 21 21 22 23 24 26 28 30 32 32 32 32 33 34
16 18 19 20 20 21 21 20 20 20 20 19 19 19 19 20 20 20 20 20 20 20 20 20 20 20 20 20 20 20 20 19 19 20 19 18 17 17 17 17 16 16 15 15 15 15 15 15 15 14 15 16 17 17 17 16 15 15 14 15 16 17 18 17 17 18 20 21 22 22 22 22 22 22 22 24 25 27 31 33 33 33 33 33 34
15 16 17 18 19 19 20 20 20 19 19 18 18 18 19 19 19 19 20 20 20 20 20 20 20 20 20 20 20 20 20 19 19 19 19 17 16 15 16 16 15 15 14 13 13 14 15 15 15 15 16 16 17 17 17 16 15 14 14 15 16 18 18 17 16 18 20 21 22 23 23 23 22 22 22 24 25 28 31 33 34 34 33 33 34
12 14 15 16 17 18 19 19 20 19 19 18 18 17 17 18 18 18 19 19 19 19 19 20 20 20 20 20 20 20 20 19 19 19 19 18 17 15 15 15 15 14 13 12 12 14 14 15 15 15 15 16 17 17 17 16 15 14 14 16 17 18 18 17 16 18 20 22 23 23 23 23 23 22 22 24 25 28 31 33 34 34 33 33 34
11 12 13 14 15 16 17 18 19 19 19 19 18 17 17 17 16 16 17 18 18 18 19 19 20 20 19 19 19 20 20 19 19 18 18 18 18 16 14 14 14 13 13 12 12 13 13 14 14 15 16 17 18 18 16 16 15 14 15 16 18 18 18 18 17 18 20 23 24 24 24 24 23 23 23 23 25 27 30 32 33 34 33 33 33
10 11 11 12 13 14 15 16 17 19 20 19 19 18 18 17 17 16 16 16 17 17 18 19 19 19 19 19 19 19 19 19 18 18 17 17 17 16 15 14 14 13 13 13 13 12 12 12 14 15 17 18 19 18 16 15 15 14 15 17 18 18 18 18 17 18 19 22 24 24 25 25 24 24 23 23 25 27 29 31 32 33 33 32 33
10 10 11 11 12 13 13 14 16 17 19 20 20 19 19 19 18 17 17 16 16 17 17 18 18 18 18 19 18 18 19 19 18 17 17 16 15 15 15 15 15 14 13 13 13 12 11 11 13 15 18 19 19 17 15 14 14 14 15 17 18 18 19 19 18 18 19 21 24 25 25 25 25 24 23 23 25 27 28 30 32 32 32 32 32
10 11 11 11 11 11 12 13 14 16 18 19 20 20 20 20 19 19 18 18 17 17 17 17 17 17 17 18 18 18 18 18 18 17 17 16 15 14 15 15 15 15 14 13 13 13 12 11 12 15 18 19 19 17 15 13 13 14 15 16 17 18 19 19 19 19 19 20 23 25 26 25 24 24 24 24 25 27 28 30 31 31 31 31 32
10 11 11 11 11 11 11 12 13 15 16 18 19 20 20 20 20 20 19 19 19 18 18 17 17 17 17 17 17 17 17 17 17 16 16 15 15 14 14 13 14 14 14 14 13 13 13 12 13 15 17 19 19 17 14 13 13 13 14 16 17 18 19 20 20 20 19 20 22 25 27 26 25 24 24 25 26 27 28 29 30 30 30 30 31
10 10 11 11 11 11 11 12 13 14 15 17 18 19 20 21 21 21 20 20 20 19 18 18 18 17 17 16 16 16 16 16 15 15 14 14 14 13 13 13 12 13 13 13 13 13 13 12 13 15 17 19 18 17 14 12 12 13 14 15 16 17 19 20 21 21 21 20 20 23 27 27 25 25 25 26 26 27 28 29 29 30 29 29 30
10 10 10 11 12 11 11 12 13 13 14 15 17 18 19 21 21 21 21 21 21 20 19 19 19 18 17 17 16 15 15 15 15 14 14 13 13 13 13 12 12 12 12 12 13 13 13 13 14 15 17 18 18 17 14 12 12 12 13 14 15 17 18 20 21 21 21 21 20 22 25 27 27 26 27 27 27 27 28 28 28 28 28 28 28
9 9 10 10 11 12 12 12 13 13 14 14 15 17 18 20 21 22 22 22 22 21 21 20 20 19 18 17 16 15 15 15 15 14 14 13 13 13 13 13 13 12 12 12 12 13 13 14 15 16 17 18 18 17 14 12 11 12 12 13 14 15 17 19 21 22 22 22 22 22 24 27 28 28 28 28 28 28 28 28 28 28 28 28 28
8 8 9 9 10 10 11 12 13 13 14 14 15 16 18 19 21 22 22 23 23 23 22 21 20 20 19 18 17 16 16 16 15 15 14 14 14 13 13 13 13 13 13 13 13 13 14 15 15 16 17 18 18 17 14 12 11 11 12 12 13 15 17 19 20 21 23 24 24 24 24 26 28 29 29 29 29 28 28 28 28 28 28 29 29
8 7 8 8 9 9 10 10 12 13 14 14 15 16 17 18 20 22 22 23 23 23 23 23 21 20 19 19 18 17 17 17 16 16 15 15 14 14 14 14 14 14 14 14 14 14 14 15 15 16 17 17 17 16 14 12 11 11 11 12 14 15 17 18 19 21 23 25 26 25 26 27 29 30 30 30 30 30 30 30 30 31 31 32 33
9 8 8 8 8 8 8 9 10 11 12 14 15 16 17 18 19 21 22 23 23 23 23 23 22 21 20 19 18 18 17 17 17 16 16 15 15 15 14 14 14 14 14 14 15 14 14 14 15 16 16 17 17 16 14 12 11 11 11 13 14 16 17 17 19 21 23 26 27 27 28 29 30 31 31 31 31 32 33 33 34 35 36 37 38
11 10 10 10 9 8 8 9 10 10 11 13 14 16 17 18 19 20 22 23 24 24 24 23 23 22 21 20 19 18 17 17 17 17 16 15 15 15 15 14 14 14 14 14 14 14 14 14 15 15 16 16 15 15 13 12 11 11 12 13 14 15 17 18 20 22 25 27 28 28 29 30 31 32 32 33 34 35 36 37 38 39 41 42 43
13 13 13 13 13 12 10 10 11 11 12 12 14 15 16 18 19 20 21 22 23 24 24 24 24 23 22 21 19 18 17 17 17 16 16 15 15 15 14 14 14 14 14 14 14 14 14 14 15 15 16 15 15 14 13 12 11 11 12 13 14 16 18 20 23 25 27 28 29 30 31 32 34 35 36 37 38 39 40 41 43 44 45 46 47
14 15 15 15 15 16 14 13 13 13 13 13 14 14 16 17 18 20 21 22 23 23 24 24 24 24 23 22 21 19 18 17 17 16 15 14 14 14 14 13 13 13 13 13 13 14 14 14 14 15 15 15 14 13 12 12 11 11 12 14 16 19 22 24 26 27 28 30 31 33 34 36 37 38 40 41 42 43 44 45 46 47 48 48 49
16 15 15 15 15 17 17 16 16 15 15 15 14 14 15 16 17 18 19 20 21 22 22 23 23 24 23 23 22 20 19 18 17 16 15 14 13 13 13 13 13 13 13 13 13 13 13 13 13 14 15 15 14 13 12 11 12 13 16 19 22 25 27 28 29 30 31 33 35 36 38 39 40 41 42 43 44 44 45 46 46 47 48 48 49
17 16 16 16 16 16 17 17 17 17 16 16 16 16 15 15 16 17 18 19 19 20 20 20 21 22 22 22 22 21 20 18 17 16 15 14 13 13 13 12 12 12 13 13 12 12 12 12 12 13 14 14 13 13 12 13 15 18 21 25 28 30 31 32 32 34 35 37 38 39 40 40 41 42 42 43 43 44 44 45 45 45 46 46 47
18 17 17 17 16 16 16 17 17 18 18 17 17 17 17 17 17 17 17 18 18 18 18 18 18 18 19 20 21 21 20 19 17 16 15 14 13 13 12 12 11 12 12 12 12 12 12 12 12 13 13 13 13 13 13 16 19 22 26 30 33 33 34 35 36 36 37 38 39 39 39 40 40 40 40 40 41 41 41 41 41 41 42 42 42
18 18 18 18 17 16 16 16 16 17 18 18 18 18 18 18 18 18 18 17 17 17 17 16 16 16 16 17 18 18 18 18 17 15 14 14 13 12 12 11 11 11 11 12 12 12 12 11 11 12 12 13 13 13 16 19 21 24 28 31 34 34 35 35 36 36 37 37 37 36 36 36 36 36 36 36 35 35 36 36 36 36 36 37 37
18 19 19 19 19 18 16 16 16 17 17 18 19 19 19 19 19 19 19 18 18 17 17 16 15 14 14 14 15 16 16 16 15 14 13 12 12 11 10 10 10 10 10 11 11 12 11 11 11 11 11 12 12 14 17 19 22 25 28 30 32 33 34 33 33 33 33 33 32 32 31 31 31 30 30 30 30 30 30 30 31 31 31 32 32
18 18 19 19 20 20 19 17 17 16 16 17 19 19 19 20 20 20 20 19 18 17 16 16 15 14 13 12 12 13 14 14 13 12 11 11 11 10 9 9 10 9 9 10 11 11 11 10 10 10 10 10 11 13 15 17 20 25 27 29 30 31 30 30 29 29 28 28 27 26 26 25 25 25 25 25 25 25 25 26 26 26 27 27 27
20 20 20 19 19 20 21 21 19 17 15 15 17 19 19 20 20 21 20 20 19 19 18 17 16 15 13 11 10 11 12 12 12 11 9 8 9 9 9 9 9 9 8 9 10 10 10 9 9 9 9 9 10 11 13 16 20 24 26 27 27 27 27 26 25 24 24 23 22 21 21 20 20 20 20 20 20 21 21 21 21 21 22 22 23
23 22 22 19 18 18 20 22 22 19 17 16 16 17 18 19 20 20 20 20 19 19 19 18 17 16 15 13 11 10 11 11 11 10 9 7 7 7 8 8 8 8 8 8 8 8 8 8 8 8 8 9 10 11 14 17 20 22 24 25 25 24 24 23 22 21 20 19 18 17 16 16 16 16 16 16 16 16 16 16 17 17 17 18 18
25 25 24 21 18 18 19 20 22 21 19 18 18 17 18 18 20 19 19 19 19 19 18 18 18 17 16 15 14 12 12 12 11 10 10 8 7 7 7 7 8 7 7 7 6 6 6 6 6 6 6 8 9 11 13 15 17 19 21 22 23 22 21 20 20 18 18 16 15 13 12 11 11 11 12 12 12 12 12 12 12 13 13 14 14
25 27 27 24 20 19 20 21 21 21 20 20 20 20 19 19 20 20 19 18 18 18 18 18 18 17 16 16 15 14 13 14 13 12 11 10 8 7 7 6 6 6 5 5 5 4 3 3 3 3 4 6 8 9 11 13 14 16 18 20 20 20 19 18 17 16 15 14 12 10 9 8 7 7 7 7 7 8 8 9 9 9 10 10 11
29 30 30 28 25 23 22 23 23 23 22 22 22 22 21 20 20 21 20 18 18 18 18 18 18 17 16 15 14 14 13 14 14 14 13 12 11 9 8 7 6 5 5 4 3 2 1 1 1 2 4 5 6 8 9 10 12 13 15 17 18 19 18 17 16 14 12 11 10 9 7 5 4 3 3 3 3 4 5 6 7 8 8 9 10
34 33 33 32 30 27 26 26 26 25 25 24 23 23 22 21 21 21 21 20 18 17 17 18 17 17 16 15 14 13 13 13 14 15 14 14 13 12 10 9 7 6 6 6 5 3 3 4 4 5 6 6 6 7 9 10 11 12 13 15 16 17 17 17 16 14 12 10 10 9 8 6 4 3 2 2 3 4 5 6 7 8 9 10 10
32 33 35 36 35 33 31 29 29 28 27 26 25 24 24 23 23 22 22 21 19 17 16 16 17 17 17 16 14 13 14 15 15 15 16 15 15 13 12 11 10 8 8 8 7 7 6 7 8 7 7 8 8 8 9 10 11 12 12 13 15 15 16 16 16 16 15 13 12 11 10 9 8 7 7 7 7 8 9 9 10 11 11 12 13
27 31 34 35 37 37 35 34 32 31 30 29 28 27 26 25 25 24 23 22 20 18 16 15 16 17 17 17 16 15 15 16 16 17 17 17 17 15 14 14 13 11 10 10 10 10 9 9 10 9 9 9 10 10 11 11 12 13 13 13 14 15 15 15 16 16 17 16 15 15 14 13 13 12 12 12 12 12 13 14 14 15 15 16 16
31 35 35 32 32 34 36 36 35 34 33 32 31 31 31 29 27 26 26 24 22 20 17 15 15 16 17 18 19 18 17 16 16 17 19 20 20 18 17 16 15 13 12 13 13 13 12 11 11 12 11 11 12 12 13 13 13 14 14 14 15 16 16 16 17 17 18 18 18 18 17 17 17 16 16 16 17 17 18 18 19 19 20 20 20
38 40 41 36 31 29 31 34 36 37 37 35 33 32 32 32 31 29 28 28 25 22 19 17 16 16 16 17 18 19 18 18 17 19 20 22 23 22 19 19 18 15 13 14 17 16 14 14 14 14 13 13 14 14 15 15 15 16 16 16 17 18 18 18 19 19 19 19 20 20 19 20 20 20 20 20 21 21 22 22 22 23 23 23 23
45 46 47 46 42 39 37 38 38 39 39 36 32 29 29 31 32 31 30 30 29 25 22 20 19 18 17 17 18 19 19 19 19 21 22 24 25 24 22 21 21 17 13 16 20 20 17 16 16 15 16 16 16 16 17 17 18 18 18 19 19 20 21 21 21 22 21 21 22 22 22 22 22 22 23 23 23 24 24 24 24 25 25 24 23
Wind_Direction
60 59 59 59 60 62 63 64 66 68 68 65 64 63 61 60 59 58 59 60 60 61 62 64 67 73 85 97 107 113 115 113 110 106 103 101 100 98 96 94 93 92 92 93 93 91 89 86 85 79 69 57 48 47 51 56 56 53 47 36 29 23 18 16 14 11 7 7 10 10 11 11 12 13 9 4 356 350 347 346 349 352 355 356 359
62 61 60 60 61 62 63 63 64 67 67 66 64 62 61 59 58 58 58 60 60 61 62 63 64 67 73 82 93 102 109 114 116 113 106 101 99 96 92 89 87 87 88 89 90 89 87 85 79 68 60 57 58 60 62 61 56 48 39 31 26 23 21 19 15 11 8 9 11 11 11 10 12 11 9 5 358 352 348 348 352 357 359 358 3
61 62 61 61 61 62 62 62 63 65 67 66 64 62 61 59 57 57 58 60 60 62 63 64 65 67 69 74 81 88 97 106 113 117 113 105 99 94 90 86 85 86 87 88 87 85 82 77 71 67 67 67 68 67 63 56 49 42 36 31 28 26 24 19 15 11 10 12 13 13 11 10 11 9 7 4 358 354 351 354 359 2 1 2 11
60 61 61 62 62 62 61 61 63 64 64 64 63 61 60 58 57 57 59 60 61 62 64 65 66 68 70 73 76 82 88 96 104 111 113 108 101 95 90 87 87 86 86 84 81 79 78 77 76 75 74 73 69 64 57 51 45 41 36 33 30 28 25 19 16 14 15 16 16 14 12 12 11 8 5 0 358 357 358 2 5 5 6 9 16
60 61 62 62 62 62 61 61 61 61 60 60 62 62 60 58 57 58 60 61 61 63 65 66 68 70 72 75 78 81 86 93 100 106 109 108 103 96 90 86 86 84 84 83 82 83 82 82 81 78 75 70 65 60 55 50 45 41 37 34 32 29 25 21 19 19 20 20 18 16 14 14 12 8 3 359 0 2 5 8 7 8 12 17 18
61 61 62 63 63 63 62 62 61 61 60 61 62 63 62 60 60 60 61 62 63 64 66 68 70 72 73 76 79 82 87 92 98 103 106 106 101 94 89 87 87 88 88 87 86 86 85 83 81 77 73 67 63 59 54 49 45 41 37 35 33 31 28 25 25 25 24 22 19 17 16 16 13 8 3 2 6 8 10 10 9 13 18 21 21
61 61 62 63 63 63 62 62 62 62 63 63 64 65 65 64 63 63 63 64 64 65 67 68 71 73 75 77 79 82 86 89 93 97 98 98 96 93 91 90 91 91 90 88 87 86 84 82 79 76 72 67 63 57 53 48 43 40 37 34 33 32 30 31 31 28 25 22 19 17 19 19 14 9 7 9 12 11 12 11 12 19 22 23 26
61 62 61 61 62 62 62 61 61 62 63 64 65 66 67 67 66 65 64 64 65 65 66 68 71 73 75 78 80 83 85 88 90 92 93 94 94 93 93 93 93 92 90 89 87 84 82 81 79 76 72 67 62 57 51 46 41 37 34 32 32 32 31 34 34 30 26 22 18 18 21 20 15 14 14 15 14 13 13 12 16 23 24 26 29
60 61 60 60 60 60 60 60 59 60 61 63 65 66 66 65 66 65 65 65 65 65 66 68 70 73 75 77 80 83 85 88 90 92 93 93 94 93 93 92 91 89 88 87 85 83 81 81 79 77 72 67 61 56 49 43 38 34 31 30 30 32 32 36 35 31 27 22 18 18 20 21 20 21 20 17 16 14 13 14 20 25 26 28 29
58 59 59 58 57 58 58 57 57 58 59 60 61 63 64 64 64 65 65 65 65 66 67 68 70 72 75 77 80 82 85 87 89 91 92 93 92 92 91 89 88 86 85 85 84 82 79 77 77 75 72 66 60 53 46 40 36 32 28 27 29 31 32 36 35 31 28 24 19 18 21 25 26 25 22 20 18 15 14 18 23 25 27 29 28
57 57 57 56 55 55 55 55 55 54 56 57 57 59 62 63 63 64 65 65 65 65 67 68 70 72 74 76 79 82 85 87 88 90 91 92 92 91 91 90 89 88 86 84 82 81 78 75 74 72 69 64 58 51 45 39 34 31 28 27 28 30 32 35 33 30 29 26 21 21 25 28 28 27 24 23 20 16 18 23 26 28 28 28 27
56 54 54 53 52 53 53 53 52 51 51 53 54 55 57 60 62 63 64 65 65 65 66 67 70 72 74 76 78 80 83 85 87 89 91 92 92 92 91 91 91 90 88 85 82 81 79 74 69 66 63 58 54 49 43 37 33 31 30 28 27 29 33 33 30 30 31 30 25 24 28 31 30 28 26 25 21 20 23 27 29 30 29 27 27
55 53 52 51 51 52 52 52 51 49 48 49 50 51 52 56 59 60 61 62 64 64 65 66 68 71 73 76 77 79 80 82 84 86 87 89 89 90 89 89 89 88 87 86 83 81 77 73 66 61 58 53 49 47 42 36 33 32 31 28 28 31 34 31 28 30 34 34 30 28 30 32 31 29 28 26 23 24 28 31 32 32 31 29 28
56 54 53 52 51 50 51 50 50 49 48 47 47 48 48 51 54 57 58 59 61 62 62 63 66 69 71 73 76 77 79 81 81 82 83 85 86 88 87 86 85 84 84 83 81 77 72 68 64 59 55 50 45 43 39 35 33 32 31 29 29 34 35 30 27 33 38 37 34 30 32 33 32 32 31 29 25 27 32 34 35 34 33 32 31
57 56 54 54 52 51 50 49 48 48 47 47 47 46 46 47 50 52 53 55 57 59 59 59 61 65 69 72 73 75 77 79 79 79 80 81 82 84 86 86 84 82 82 80 78 73 68 63 60 56 51 46 42 39 36 34 33 32 31 29 32 37 36 30 29 36 39 39 37 32 33 34 33 34 34 31 28 29 34 37 37 37 36 35 34
59 58 56 55 54 52 50 49 49 47 46 46 47 47 46 45 46 48 48 50 52 55 57 56 57 60 64 70 72 73 74 75 77 77 76 77 77 79 80 81 82 81 79 77 74 71 65 59 55 53 48 41 38 37 35 35 33 33 31 30 32 37 37 33 32 37 38 39 39 36 35 35 34 34 35 33 30 31 35 38 39 40 39 38 36
61 60 59 56 54 53 51 49 49 48 45 45 46 47 48 46 46 47 47 47 48 51 53 54 55 57 60 65 71 72 72 73 75 77 77 77 76 76 75 75 76 77 75 73 71 66 61 55 52 50 46 41 37 36 35 34 34 35 33 31 33 36 37 36 36 38 38 39 40 39 38 37 35 35 36 34 31 32 35 38 40 41 41 40 39
63 62 60 58 55 53 52 50 49 48 46 45 45 47 49 48 47 47 47 47 47 48 51 53 54 56 58 62 67 70 70 70 71 75 77 78 78 78 76 74 73 74 72 70 68 64 60 54 50 47 45 41 38 36 34 33 33 35 34 33 35 36 37 38 38 40 40 39 40 39 39 38 38 36 36 35 32 33 36 38 40 42 42 42 42
63 63 61 59 55 52 51 50 50 48 46 45 44 46 48 49 49 49 50 49 49 49 51 54 55 56 58 61 65 68 70 68 67 69 71 73 75 77 76 74 73 72 71 69 66 64 60 55 50 47 43 39 36 36 33 31 33 35 35 35 36 36 37 39 40 42 43 41 40 40 39 39 39 38 37 36 34 34 36 38 40 41 42 44 44
58 61 61 60 56 53 50 49 48 46 45 43 43 44 46 49 50 51 52 52 52 52 53 55 56 57 59 60 63 66 68 68 66 66 66 66 68 71 72 70 68 66 65 64 61 61 59 55 51 45 40 37 36 36 34 31 33 34 35 36 36 36 37 39 40 42 45 45 42 41 40 40 40 40 39 37 36 36 36 38 40 41 42 44 46
54 56 58 59 58 54 50 47 46 45 44 42 41 41 42 45 48 50 52 54 54 54 55 56 56 57 59 60 62 64 66 66 66 66 64 63 64 66 66 64 62 60 58 55 54 55 55 52 48 41 36 35 36 36 35 33 33 34 36 36 37 37 37 39 41 42 45 46 44 42 42 42 41 41 40 38 37 38 37 38 40 42 43 44 47
48 50 52 55 56 54 51 46 44 44 43 42 41 39 39 40 43 46 49 52 54 56 57 57 57 57 57 59 61 64 65 64 64 66 65 63 61 62 62 60 57 56 55 53 51 51 50 47 42 36 33 33 34 35 36 35 34 36 37 38 38 38 38 40 43 43 46 48 47 45 44 44 43 43 42 40 39 39 38 38 40 42 44 45 48
39 42 45 48 52 53 51 46 43 43 44 43 42 40 39 38 38 42 45 48 50 53 56 57 57 58 58 58 59 61 64 64 63 64 65 63 60 58 58 57 55 55 56 55 52 49 47 43 37 31 29 29 32 35 37 36 37 38 39 40 40 39 40 42 44 45 47 51 50 48 47 46 45 45 44 42 41 41 39 39 40 42 44 47 49
30 34 36 41 45 47 48 45 42 41 43 43 43 42 41 39 39 40 42 45 46 48 51 55 57 57 57 58 59 60 61 62 62 63 62 60 58 56 55 53 52 53 53 53 51 47 43 39 33 27 24 26 30 35 38 38 39 41 42 43 43 42 43 43 45 46 48 52 53 50 49 48 47 47 46 46 44 42 41 40 41 42 44 48 51
22 25 26 31 37 40 39 41 40 38 40 41 42 43 43 42 41 40 41 44 45 46 47 51 54 55 56 56 58 59 59 60 60 60 59 56 54 51 49 48 47 46 45 45 46 44 41 36 30 23 20 23 28 33 38 40 41 44 45 47 47 46 46 45 46 47 49 53 54 52 50 48 48 49 49 49 47 44 43 42 43 43 45 48 52
17 19 19 21 26 30 31 33 35 35 36 37 38 40 42 42 42 40 41 43 45 47 47 49 51 53 54 55 55 57 58 58 56 54 53 51 48 44 43 42 41 40 39 36 37 37 36 30 24 19 18 22 27 33 38 44 45 47 49 50 51 50 50 49 48 49 50 52 54 53 49 47 48 50 51 51 49 47 46 45 46 46 47 49 53
13 13 14 14 15 21 24 26 28 30 31 31 32 33 37 40 41 41 40 40 42 44 46 48 50 51 53 54 54 54 55 55 54 51 47 44 43 41 39 38 37 37 34 29 27 27 26 22 18 17 18 22 29 34 39 45 48 50 53 53 54 54 54 53 51 51 51 53 55 54 50 47 48 51 51 52 52 50 50 49 50 50 51 53 55
8 9 9 9 10 14 17 21 22 24 26 28 27 26 29 33 37 39 39 39 39 41 43 45 47 49 51 52 53 52 53 53 52 50 47 43 42 40 38 38 36 34 32 26 22 20 19 19 19 20 20 23 30 36 41 47 51 53 54 55 55 56 57 56 54 53 53 54 55 55 51 48 50 52 53 54 54 54 54 54 54 55 56 58 60
356 2 5 6 8 10 12 15 18 19 20 22 22 21 22 26 30 34 36 37 38 38 39 41 44 46 48 50 51 50 50 50 51 50 48 45 42 41 39 38 37 34 31 28 24 22 20 21 23 23 23 26 31 36 41 48 56 57 57 57 56 57 58 58 55 54 53 54 55 55 53 51 52 55 57 59 59 60 61 61 61 62 63 65 66
339 347 353 359 4 9 10 12 14 15 16 17 17 17 18 20 24 27 30 33 35 36 37 38 40 42 44 47 48 49 49 50 50 49 47 45 42 42 40 39 37 35 33 30 29 28 27 26 27 27 27 30 33 38 43 49 57 62 61 59 59 59 60 58 56 54 53 54 56 57 58 57 58 61 63 65 67 68 70 70 71 71 72 73 74
323 330 336 343 352 2 7 9 13 14 14 14 14 15 15 16 19 22 24 27 31 33 34 35 37 39 41 44 45 47 49 50 50 49 47 46 43 41 40 38 37 36 34 33 32 32 32 31 31 30 30 33 36 41 46 50 55 59 60 59 60 60 59 58 57 56 56 57 59 62 64 66 67 69 71 73 75 77 79 79 80 80 80 80 80
319 323 326 331 337 345 355 360 6 10 12 13 14 14 14 13 15 18 19 22 25 28 30 31 32 34 37 40 42 45 48 50 51 50 48 48 45 41 40 39 38 37 35 34 34 34 33 33 32 33 34 37 41 45 49 53 55 56 57 57 59 61 61 60 61 61 62 64 67 69 72 75 77 79 80 82 83 84 85 86 86 86 86 86 86
319 322 324 327 330 335 341 347 353 359 4 9 11 13 13 13 13 15 16 18 20 22 25 26 27 29 32 35 37 42 46 48 50 50 50 50 47 42 41 41 40 38 36 35 34 34 34 31 32 34 37 42 47 50 54 57 57 57 59 62 64 66 66 67 68 69 71 74 77 80 83 85 87 88 89 89 90 90 90 91 90 90 90 90 90
313 316 318 321 325 328 332 338 345 349 352 358 2 6 10 11 11 12 14 16 17 18 20 21 22 23 25 28 31 35 41 45 46 48 50 49 47 43 41 41 40 37 36 35 34 34 33 31 32 35 41 47 52 56 59 63 64 65 68 72 74 75 76 77 77 79 82 85 88 91 93 94 95 95 95 95 94 94 94 94 94 93 93 93 92
309 306 308 313 317 320 325 330 337 342 344 347 350 354 360 4 5 7 9 12 14 15 16 18 17 17 19 22 25 28 34 38 41 43 45 45 44 42 41 40 37 35 35 34 35 35 34 34 35 39 46 52 58 63 68 71 75 78 80 82 84 86 86 87 89 92 95 97 99 100 100 100 100 99 98 98 97 96 95 95 94 94 93 93 92
306 304 302 306 310 315 319 323 328 332 336 338 340 343 346 351 355 358 0 3 7 11 13 15 15 14 14 16 19 23 27 31 34 36 37 38 39 38 38 37 34 33 33 33 35 36 37 38 40 45 52 58 64 71 77 83 88 91 92 94 96 97 99 100 101 103 104 105 104 103 103 102 101 99 98 97 96 95 94 93 92 92 91 91 90
299 302 302 301 305 311 315 319 322 324 327 330 333 334 335 338 341 345 349 353 357 1 5 10 12 12 11 11 12 17 21 25 28 31 31 32 33 32 33 33 31 31 31 31 33 36 38 41 44 50 57 63 70 79 87 94 99 102 105 106 106 107 107 108 109 109 109 107 106 105 103 102 101 100 99 98 97 95 94 93 92 92 91 90 89
294 299 301 300 300 305 311 316 319 320 320 322 325 327 327 328 330 333 337 341 344 348 354 359 5 8 8 7 7 9 14 19 23 26 26 26 27 27 27 28 29 30 29 29 30 34 38 43 48 54 63 72 80 89 98 104 109 112 114 115 114 114 113 113 114 113 112 111 110 108 107 106 104 103 102 100 98 96 95 94 92 91 90 89 88
288 293 297 298 297 299 306 311 317 319 318 315 315 318 319 320 321 322 325 328 331 336 341 347 353 358 2 3 2 2 5 10 15 21 21 19 20 21 20 20 24 28 27 25 27 30 35 43 52 61 73 83 92 101 108 113 117 120 121 122 122 121 121 120 120 119 117 115 113 111 109 107 105 103 101 98 96 94 92 90 89 87 85 84 83
281 286 290 292 293 295 299 304 311 317 318 313 309 308 311 313 314 314 315 318 321 324 329 335 340 345 350 354 354 353 354 358 4 11 17 16 11 10 11 12 17 22 22 23 25 27 32 43 57 68 81 92 100 109 116 121 125 127 128 128 128 127 126 125 123 121 119 117 114 111 109 106 103 100 98 95 92 90 88 86 84 82 80 78 77
276 280 283 286 288 291 293 296 301 310 313 309 305 303 305 309 311 312 313 315 318 321 324 328 332 335 337 340 340 340 342 344 349 357 5 10 5 1 360 1 7 12 13 18 24 26 30 42 57 71 81 90 98 108 118 126 131 134 135 135 134 133 131 129 126 123 120 117 114 111 108 105 101 97 94 91 88 85 83 81 80 79 76 73 71
271 273 275 278 281 283 286 288 292 299 304 305 303 302 303 306 308 311 313 315 318 321 323 325 327 330 331 331 327 325 326 329 334 339 345 354 354 351 351 353 357 3 6 11 21 26 29 40 54 68 81 93 103 112 124 133 138 141 142 143 143 141 139 136 133 130 127 123 117 113 108 103 99 95 91 88 84 81 78 75 75 74 72 69 66
266 268 269 270 273 275 277 279 283 288 292 295 299 301 302 304 306 308 311 314 317 318 319 320 322 324 326 326 323 318 314 315 319 323 327 332 335 335 341 345 348 353 358 5 14 18 26 38 52 66 85 103 116 124 133 141 146 149 152 152 151 151 149 147 144 141 139 135 130 122 115 106 99 93 87 82 78 73 69 66 66 66 65 61 58
265 267 266 265 266 268 269 269 270 273 279 284 290 295 300 304 305 305 306 310 313 314 313 313 314 315 316 317 316 313 308 306 308 311 313 316 317 318 324 331 337 339 341 347 360 5 11 33 59 85 109 121 130 137 142 148 154 158 162 163 163 162 161 158 156 154 151 149 145 140 132 120 107 97 85 76 69 61 54 51 49 48 47 44 40
265 267 266 264 262 263 263 263 263 263 268 275 281 287 292 298 301 301 300 302 305 306 306 305 304 304 304 305 304 302 299 297 298 300 301 303 303 303 305 309 314 317 311 306 313 322 303 235 175 162 161 155 152 154 155 158 163 167 171 174 175 175 173 172 170 168 166 166 166 165 161 154 139 123 97 69 48 32 23 21 20 18 17 15 14
265 265 264 263 263 261 259 259 259 261 263 267 274 280 284 288 292 293 292 293 294 297 299 299 297 295 293 292 290 288 285 283 283 286 288 290 291 290 289 288 287 288 285 275 264 255 227 210 206 196 188 183 176 174 174 174 175 178 182 185 187 188 188 188 188 188 190 191 192 195 197 203 209 212 228 278 311 324 333 336 340 344 346 346 347
270 269 266 264 264 264 263 260 259 259 261 264 268 272 274 277 282 284 284 285 287 291 294 295 293 290 286 282 279 276 275 271 270 273 276 279 278 276 275 275 272 269 270 264 250 240 226 211 207 207 201 197 196 193 194 195 193 193 195 197 199 200 201 203 205 207 210 213 216 220 223 230 238 246 257 270 283 296 304 308 312 317 321 325 327
271 270 268 266 265 264 264 263 263 262 261 263 267 269 268 268 273 277 277 277 280 283 287 290 289 286 281 277 272 268 267 266 267 270 272 273 272 270 268 268 266 261 261 260 250 237 229 219 211 211 208 204 205 207 207 208 209 207 207 208 210 212 214 217 219 221 223 226 231 236 241 245 250 257 265 272 280 287 294 298 301 304 309 313 315
258 261 263 265 266 265 264 263 265 265 262 264 270 272 269 264 264 268 269 269 269 272 277 283 286 284 281 276 272 268 264 262 263 266 268 270 269 267 263 262 261 257 256 261 255 240 232 229 222 217 215 211 210 213 215 217 219 218 219 219 219 220 222 226 229 231 233 236 239 244 250 254 259 264 270 276 280 284 290 295 298 301 305 308 309
250 253 255 255 255 259 263 264 265 264 263 268 272 271 266 262 258 258 262 264 264 263 265 270 275 278 280 279 277 274 270 265 262 260 262 265 265 263 261 258 256 251 249 257 257 245 236 237 233 227 225 222 218 217 220 223 225 225 225 227 229 228 228 230 233 236 239 243 244 247 252 257 262 267 273 276 280 284 289 293 296 298 300 302 303
249 249 250 247 244 246 251 258 263 261 260 265 269 264 259 257 255 254 255 259 262 261 258 258 260 263 268 274 277 278 276 271 265 260 259 260 261 260 260 258 255 249 243 249 253 249 243 242 242 240 237 233 229 225 224 226 229 230 229 231 234 235 235 236 237 238 241 245 247 249 253 258 262 266 270 272 276 281 287 290 292 293 294 295 295
Height
10968 10967 10966 10965 10964 10962 10961 10960 10958 10957 10956 10955 10953 10952 10950 10949 10947 10945 10943 10941 10940 10939 10938 10937 10936 10936 10936 10936 10937 10938 10939 10940 10941 10942 10943 10944 10944 10945 10946 10946 10947 10947 10947 10948 10948 10948 10948 10948 10948 10947 10947 10947 10946 10946 10945 10944 10944 10943 10942 10941 10940 10939 10937 10935 10933 10931 10930 10928 10927 10925 10923 10921 10919 10917 10915 10912 10910 10908 10905 10903 10901 10899 10897 10893 10889
10971 10970 10969 10967 10966 10965 10964 10962 10961 10960 10959 10957 10956 10954 10953 10951 10949 10947 10946 10944 10943 10941 10940 10939 10938 10937 10937 10937 10938 10939 10940 10941 10943 10944 10945 10946 10946 10947 10948 10948 10948 10949 10949 10949 10949 10949 10949 10949 10949 10948 10948 10948 10947 10947 10946 10946 10945 10944 10943 10942 10941 10939 10937 10935 10933 10932 10930 10928 10927 10925 10923 10921 10919 10917 10914 10912 10910 10907 10905 10903 10901 10899 10896 10892 10889
10973 10972 10971 10970 10969 10968 10966 10965 10964 10963 10961 10960 10959 10958 10956 10954 10952 10950 10949 10947 10946 10944 10943 10941 10940 10940 10939 10939 10939 10940 10941 10942 10944 10945 10947 10948 10948 10949 10949 10950 10950 10951 10951 10951 10951 10951 10950 10950 10949 10949 10949 10949 10948 10948 10947 10946 10946 10945 10944 10942 10941 10939 10937 10936 10934 10932 10931 10929 10927 10925 10923 10921 10919 10917 10914 10912 10909 10907 10905 10903 10901 10898 10895 10891 10888
10976 10975 10974 10973 10972 10970 10969 10968 10967 10966 10965 10963 10962 10961 10959 10957 10956 10954 10952 10950 10949 10947 10945 10944 10943 10942 10942 10941 10941 10942 10943 10944 10945 10947 10948 10949 10950 10950 10951 10952 10952 10952 10952 10952 10952 10952 10951 10951 10950 10950 10950 10950 10949 10949 10948 10947 10946 10945 10944 10943 10941 10939 10938 10936 10934 10933 10931 10929 10927 10925 10923 10921 10919 10917 10914 10912 10909 10906 10904 10903 10900 10897 10894 10891 10889
10979 10978 10977 10976 10974 10973 10972 10971 10969 10968 10967 10966 10964 10963 10962 10960 10958 10957 10955 10953 10952 10951 10949 10948 10947 10946 10945 10944 10944 10944 10945 10946 10947 10948 10950 10951 10952 10952 10953 10953 10954 10954 10953 10953 10953 10953 10952 10952 10952 10952 10951 10951 10950 10950 10949 10948 10947 10946 10944 10943 10941 10940 10938 10936 10934 10933 10931 10929 10927 10925 10923 10921 10919 10917 10914 10912 10909 10906 10904 10902 10900 10897 10893 10891 10889
10981 10981 10979 10978 10977 10976 10975 10973 10972 10971 10969 10968 10967 10965 10964 10963 10962 10961 10959 10957 10956 10954 10953 10952 10951 10949 10948 10947 10947 10947 10948 10948 10949 10950 10951 10952 10953 10954 10954 10955 10955 10955 10955 10955 10955 10954 10954 10953 10953 10953 10953 10952 10952 10951 10950 10949 10947 10946 10945 10943 10942 10940 10938 10936 10935 10933 10931 10929 10927 10925 10923 10921 10919 10917 10914 10912 10909 10907 10905 10902 10899 10896 10894 10891 10890
10984 10983 10982 10981 10980 10979 10977 10976 10975 10974 10972 10971 10969 10968 10967 10967 10966 10965 10963 10961 10959 10958 10957 10956 10954 10953 10952 10951 10951 10951 10951 10951 10952 10953 10954 10954 10955 10956 10956 10956 10957 10957 10956 10956 10956 10956 10956 10955 10955 10954 10954 10953 10953 10952 10951 10949 10948 10947 10945 10944 10942 10941 10939 10937 10935 10933 10931 10930 10928 10926 10924 10922 10920 10917 10915 10912 10910 10908 10905 10903 10900 10897 10894 10892 10890
10987 10986 10985 10984 10983 10982 10980 10980 10979 10977 10976 10974 10973 10972 10971 10971 10969 10968 10965 10964 10962 10962 10961 10959 10958 10956 10956 10955 10955 10954 10955 10955 10955 10956 10956 10957 10957 10958 10958 10959 10959 10959 10958 10958 10958 10958 10957 10957 10956 10955 10955 10954 10953 10953 10951 10950 10949 10947 10946 10944 10943 10941 10939 10937 10936 10934 10932 10930 10929 10927 10924 10922 10920 10917 10915 10913 10911 10908 10906 10903 10900 10898 10895 10893 10891
10989 10988 10987 10987 10986 10985 10984 10983 10981 10980 10979 10978 10977 10976 10975 10974 10972 10970 10968 10967 10966 10965 10964 10963 10962 10960 10960 10959 10959 10958 10958 10958 10959 10959 10959 10959 10960 10960 10961 10961 10961 10961 10960 10960 10960 10960 10959 10958 10957 10957 10956 10955 10954 10953 10952 10951 10949 10948 10946 10945 10943 10941 10940 10938 10936 10935 10933 10931 10929 10927 10925 10923 10920 10918 10916 10914 10911 10909 10906 10904 10901 10898 10896 10893 10891
10992 10991 10990 10990 10989 10988 10986 10985 10984 10983 10983 10982 10981 10980 10978 10976 10975 10973 10971 10970 10970 10969 10968 10967 10966 10964 10963 10963 10962 10962 10962 10962 10962 10962 10962 10962 10962 10962 10963 10963 10963 10963 10963 10962 10962 10961 10961 10960 10959 10958 10957 10956 10955 10954 10953 10951 10950 10949 10947 10946 10944 10942 10941 10939 10937 10936 10934 10932 10930 10928 10926 10923 10921 10918 10917 10914 10912 10910 10907 10904 10901 10898 10896 10893 10891
10995 10994 10993 10992 10991 10990 10988 10987 10987 10987 10986 10985 10984 10982 10980 10979 10977 10976 10975 10974 10974 10973 10972 10971 10969 10968 10967 10967 10966 10966 10965 10965 10965 10964 10964 10964 10964 10965 10965 10965 10965 10965 10965 10964 10963 10963 10962 10962 10960 10959 10958 10957 10956 10954 10953 10952 10951 10950 10948 10946 10944 10943 10941 10940 10938 10937 10935 10933 10931 10929 10926 10924 10922 10919 10917 10915 10913 10911 10908 10905 10902 10899 10896 10894 10891
10998 10997 10995 10995 10994 10992 10991 10990 10990 10990 10989 10988 10986 10985 10983 10982 10980 10980 10979 10978 10977 10976 10976 10974 10973 10972 10971 10971 10970 10969 10969 10968 10968 10967 10967 10967 10966 10967 10967 10967 10967 10966 10966 10966 10965 10964 10964 10963 10962 10960 10959 10958 10956 10955 10954 10953 10952 10950 10949 10947 10945 10944 10942 10941 10939 10938 10936 10934 10932 10929 10927 10925 10923 10920 10918 10916 10914 10912 10909 10906 10903 10900 10897 10894 10892
10999 10998 10997 10997 10996 10995 10994 10994 10993 10992 10991 10990 10988 10987 10986 10985 10983 10983 10982 10981 10981 10980 10979 10978 10977 10976 10975 10974 10973 10973 10972 10971 10971 10971 10970 10969 10968 10969 10969 10969 10969 10968 10967 10967 10967 10966 10965 10964 10963 10961 10960 10959 10957 10956 10955 10954 10953 10951 10950 10948 10946 10945 10943 10942 10940 10938 10936 10934 10932 10930 10928 10926 10924 10922 10920 10918 10915 10913 10910 10907 10904 10901 10898 10896 10893
11001 11000 11000 11000 10999 10998 10997 10996 10995 10994 10993 10992 10991 10990 10988 10987 10986 10986 10985 10984 10983 10983 10982 10981 10980 10979 10978 10977 10976 10975 10974 10974 10974 10973 10972 10972 10971 10971 10971 10971 10970 10970 10969 10968 10968 10967 10966 10965 10964 10962 10961 10960 10959 10957 10956 10955 10953 10952 10950 10949 10947 10946 10944 10943 10941 10939 10937 10935 10933 10931 10929 10927 10925 10923 10921 10919 10916 10914 10911 10908 10905 10902 10900 10898 10895
11003 11003 11003 11002 11001 11000 10999 10998 10997 10996 10995 10994 10993 10992 10991 10990 10989 10988 10988 10987 10986 10985 10984 10984 10983 10982 10981 10980 10979 10978 10977 10976 10976 10975 10975 10974 10973 10973 10972 10972 10972 10971 10970 10970 10969 10968 10967 10966 10965 10963 10962 10961 10960 10958 10957 10955 10954 10953 10951 10950 10948 10947 10945 10943 10942 10940 10938 10936 10934 10932 10930 10928 10926 10924 10922 10920 10918 10915 10912 10909 10907 10904 10902 10900 10897
11006 11006 11005 11004 11003 11002 11001 11000 10999 10998 10997 10996 10995 10994 10994 10993 10992 10991 10990 10989 10988 10987 10986 10986 10985 10984 10984 10982 10981 10980 10980 10979 10978 10977 10977 10976 10976 10975 10974 10974 10973 10972 10972 10971 10970 10969 10968 10967 10966 10964 10963 10962 10961 10959 10958 10956 10955 10954 10953 10951 10949 10948 10946 10944 10943 10941 10939 10937 10935 10933 10931 10929 10927 10925 10923 10921 10919 10917 10914 10912 10909 10906 10904 10901 10899
11009 11008 11007 11006 11005 11004 11003 11002 11002 11001 11000 10999 10998 10997 10996 10995 10994 10993 10992 10991 10991 10990 10989 10988 10987 10987 10986 10985 10983 10983 10982 10981 10980 10979 10979 10978 10978 10977 10976 10976 10975 10974 10973 10972 10971 10970 10969 10968 10967 10966 10965 10963 10962 10960 10959 10957 10956 10955 10954 10952 10950 10949 10947 10945 10944 10942 10940 10939 10937 10935 10933 10931 10929 10927 10925 10923 10921 10919 10916 10914 10911 10908 10906 10903 10901
11011 11010 11009 11008 11007 11007 11006 11005 11004 11003 11002 11001 11000 10999 10998 10997 10997 10995 10995 10994 10993 10992 10991 10990 10989 10988 10988 10987 10986 10985 10984 10984 10983 10981 10980 10980 10980 10979 10978 10977 10976 10975 10975 10974 10973 10972 10971 10969 10968 10967 10966 10965 10963 10961 10960 10959 10957 10956 10955 10953 10952 10950 10948 10947 10945 10944 10942 10940 10938 10936 10934 10932 10930 10928 10927 10925 10923 10921 10918 10916 10913 10911 10908 10906 10903
11012 11011 11011 11010 11009 11009 11008 11007 11006 11005 11004 11003 11002 11001 11000 10999 10999 10998 10997 10996 10995 10994 10993 10992 10991 10990 10990 10989 10988 10987 10986 10986 10985 10984 10983 10982 10981 10981 10980 10979 10978 10977 10976 10975 10974 10973 10972 10971 10970 10969 10967 10966 10964 10962 10961 10960 10959 10957 10956 10955 10953 10951 10950 10948 10947 10945 10943 10942 10940 10938 10936 10934 10932 10930 10929 10927 10925 10923 10920 10918 10916 10913 10911 10908 10905
11014 11013 11013 11012 11011 11011 11010 11009 11008 11007 11006 11005 11004 11003 11002 11001 11001 11000 10999 10998 10997 10996 10995 10994 10993 10992 10991 10991 10990 10989 10988 10988 10987 10986 10985 10984 10983 10982 10982 10980 10979 10978 10978 10977 10976 10974 10973 10972 10971 10970 10969 10968 10966 10964 10963 10962 10960 10959 10958 10956 10954 10953 10951 10950 10948 10947 10945 10943 10941 10940 10938 10936 10934 10933 10931 10929 10927 10924 10922 10920 10918 10916 10913 10911 10908
11016 11015 11014 11014 11013 11012 11012 11011 11010 11009 11009 11007 11006 11005 11004 11003 11003 11002 11001 11000 10999 10998 10997 10996 10995 10994 10993 10992 10992 10991 10990 10989 10989 10988 10987 10986 10985 10984 10983 10982 10981 10980 10979 10978 10977 10975 10974 10973 10972 10972 10971 10969 10967 10965 10964 10963 10962 10960 10959 10958 10956 10954 10953 10951 10950 10948 10947 10945 10943 10942 10940 10938 10936 10935 10933 10931 10929 10926 10924 10922 10920 10918 10916 10914 10911
11017 11016 11016 11015 11015 11014 11013 11013 11012 11011 11011 11010 11008 11007 11007 11006 11005 11004 11002 11001 11000 11000 10998 10997 10996 10995 10994 10994 10993 10993 10992 10991 10990 10989 10988 10987 10986 10985 10984 10983 10982 10981 10980 10979 10978 10976 10975 10975 10974 10973 10972 10970 10968 10967 10966 10965 10963 10962 10960 10959 10958 10956 10955 10953 10952 10950 10949 10947 10946 10944 10942 10940 10938 10937 10935 10933 10931 10929 10926 10924 10922 10920 10919 10916 10914
11018 11018 11017 11017 11016 11016 11015 11015 11014 11013 11012 11011 11010 11009 11009 11008 11007 11006 11004 11003 11002 11001 11000 10999 10998 10997 10996 10995 10995 10994 10993 10992 10992 10991 10990 10989 10988 10987 10985 10984 10983 10982 10981 10980 10979 10978 10977 10976 10975 10974 10973 10971 10970 10968 10967 10966 10965 10963 10962 10961 10959 10958 10956 10955 10953 10952 10951 10949 10948 10946 10944 10942 10940 10939 10937 10935 10933 10931 10929 10927 10925 10923 10921 10919 10917
11020 11019 11019 11018 11018 11017 11017 11016 11016 11015 11014 11013 11012 11011 11010 11010 11009 11008 11006 11005 11004 11003 11002 11000 10999 10998 10998 10997 10996 10995 10995 10994 10993 10992 10991 10990 10989 10988 10987 10986 10985 10984 10982 10981 10980 10979 10978 10977 10976 10975 10974 10972 10971 10970 10969 10967 10966 10965 10964 10963 10961 10960 10958 10957 10955 10954 10953 10951 10950 10948 10946 10944 10943 10941 10939 10937 10935 10933 10931 10930 10928 10926 10924 10922 10920
11021 11021 11020 11020 11020 11019 11019 11018 11018 11017 11016 11015 11014 11013 11012 11011 11011 11009 11008 11007 11006 11005 11004 11002 11001 11000 10999 10998 10998 10997 10996 10995 10994 10993 10993 10992 10991 10990 10988 10987 10986 10985 10983 10982 10981 10981 10979 10978 10977 10976 10975 10974 10973 10972 10970 10969 10968 10967 10966 10965 10963 10962 10960 10959 10957 10956 10955 10953 10952 10950 10949 10947 10945 10943 10941 10939 10938 10936 10934 10932 10931 10929 10927 10925 10923
11022 11022 11022 11022 11021 11021 11021 11020 11019 11019 11018 11017 11016 11015 11014 11013 11012 11011 11010 11009 11008 11007 11006 11004 11003 11002 11001 11000 10999 10998 10997 10996 10996 10995 10994 10993 10992 10991 10989 10988 10987 10986 10985 10984 10983 10982 10981 10980 10979 10978 10976 10975 10974 10973 10972 10971 10970 10969 10968 10966 10965 10964 10962 10961 10960 10958 10957 10955 10954 10953 10951 10949 10947 10945 10943 10942 10940 10938 10937 10935 10934 10932 10930 10929 10927
11023 11023 11023 11023 11023 11023 11022 11021 11021 11020 11019 11018 11018 11016 11016 11015 11013 11012 11011 11011 11010 11008 11007 11006 11005 11004 11003 11002 11001 11000 10999 10998 10997 10996 10995 10994 10993 10991 10990 10989 10988 10987 10986 10985 10984 10983 10982 10981 10980 10979 10978 10977 10976 10975 10974 10973 10972 10971 10969 10968 10967 10966 10965 10963 10962 10960 10959 10957 10956 10955 10953 10951 10949 10947 10946 10944 10942 10941 10939 10938 10937 10935 10933 10932 10930
11024 11024 11024 11024 11024 11023 11023 11023 11022 11021 11020 11020 11019 11018 11017 11016 11015 11014 11013 11012 11011 11010 11009 11008 11007 11006 11004 11003 11002 11001 11000 10999 10998 10997 10996 10995 10994 10992 10991 10990 10989 10988 10987 10986 10985 10984 10983 10982 10981 10980 10979 10978 10977 10976 10975 10974 10973 10972 10971 10970 10969 10968 10967 10966 10964 10963 10961 10960 10958 10957 10956 10954 10952 10950 10948 10947 10945 10944 10942 10941 10940 10938 10937 10935 10934
11024 11024 11024 11024 11024 11024 11024 11023 11023 11022 11021 11021 11020 11019 11019 11018 11017 11016 11014 11014 11013 11012 11011 11010 11009 11008 11006 11005 11004 11003 11001 11000 10999 10998 10997 10996 10995 10994 10992 10991 10990 10989 10988 10987 10986 10985 10984 10983 10982 10981 10980 10979 10978 10978 10977 10976 10975 10974 10973 10972 10971 10970 10969 10968 10966 10965 10963 10962 10961 10959 10958 10956 10954 10953 10951 10949 10948 10947 10945 10944 10943 10941 10940 10939 10937
11024 11024 11024 11024 11024 11024 11024 11023 11023 11023 11022 11022 11021 11021 11020 11019 11018 11017 11016 11015 11014 11013 11013 11012 11011 11010 11008 11007 11005 11004 11003 11002 11001 10999 10998 10997 10996 10995 10994 10992 10991 10990 10989 10988 10987 10987 10986 10985 10984 10983 10982 10981 10980 10979 10978 10977 10977 10976 10975 10974 10973 10972 10971 10970 10968 10967 10966 10964 10963 10962 10960 10959 10957 10956 10954 10953 10951 10950 10949 10948 10946 10945 10944 10942 10941
11025 11024 11024 11024 11024 11023 11023 11023 11023 11023 11023 11022 11022 11021 11021 11020 11019 11019 11018 11017 11016 11015 11014 11013 11013 11011 11010 11009 11007 11006 11005 11003 11002 11001 11000 10998 10997 10996 10995 10994 10992 10991 10990 10989 10989 10988 10987 10986 10985 10984 10983 10982 10981 10981 10980 10979 10978 10977 10977 10976 10975 10974 10973 10972 10971 10970 10968 10967 10966 10965 10963 10962 10961 10959 10958 10957 10955 10954 10953 10951 10950 10949 10948 10947 10945
11025 11024 11024 11024 11024 11024 11023 11023 11023 11023 11023 11023 11022 11022 11022 11021 11021 11020 11020 11019 11018 11017 11016 11015 11014 11013 11012 11011 11009 11008 11007 11005 11004 11003 11001 11000 10999 10998 10996 10995 10994 10993 10992 10991 10990 10989 10988 10987 10987 10986 10985 10984 10983 10982 10982 10981 10980 10979 10978 10978 10977 10976 10975 10974 10973 10972 10971 10970 10969 10968 10967 10966 10965 10963 10962 10961 10960 10959 10957 10956 10955 10953 10952 10951 10950
11025 11025 11025 11024 11024 11024 11024 11023 11023 11023 11023 11023 11022 11022 11022 11022 11022 11021 11021 11021 11020 11019 11019 11018 11017 11015 11014 11013 11011 11010 11009 11007 11006 11004 11003 11002 11000 10999 10998 10997 10996 10994 10993 10992 10991 10990 10989 10989 10988 10987 10986 10986 10985 10984 10983 10983 10982 10981 10980 10980 10979 10978 10977 10976 10976 10975 10974 10973 10972 10971 10970 10970 10969 10968 10967 10966 10965 10964 10962 10961 10960 10959 10957 10956 10955
11025 11025 11025 11025 11025 11025 11025 11024 11024 11023 11023 11023 11023 11023 11023 11023 11022 11022 11022 11022 11021 11021 11020 11019 11019 11017 11016 11015 11013 11012 11011 11009 11008 11006 11005 11004 11002 11001 11000 10998 10997 10996 10995 10994 10993 10992 10991 10990 10990 10989 10988 10987 10987 10986 10985 10985 10984 10983 10983 10982 10981 10980 10980 10979 10978 10978 10977 10976 10976 10975 10975 10974 10973 10972 10971 10971 10970 10969 10968 10966 10965 10964 10963 10962 10961
11024 11025 11025 11025 11026 11025 11025 11025 11025 11024 11024 11024 11023 11023 11023 11023 11023 11023 11023 11023 11022 11022 11021 11021 11020 11019 11018 11017 11016 11014 11013 11012 11010 11009 11007 11006 11004 11002 11001 11000 10999 10997 10996 10995 10994 10994 10993 10992 10992 10991 10990 10989 10989 10988 10987 10987 10986 10986 10985 10984 10984 10983 10983 10982 10982 10981 10981 10981 10980 10979 10979 10978 10978 10977 10976 10975 10975 10974 10973 10972 10971 10970 10968 10967 10966
11024 11024 11025 11025 11026 11026 11026 11026 11026 11026 11025 11025 11024 11024 11024 11024 11023 11023 11023 11023 11023 11022 11022 11022 11021 11020 11020 11018 11017 11016 11015 11013 11012 11011 11010 11008 11006 11004 11003 11001 11000 10999 10998 10997 10996 10995 10995 10994 10994 10993 10992 10992 10991 10990 10990 10989 10989 10988 10988 10987 10987 10987 10986 10986 10986 10986 10985 10985 10984 10984 10983 10983 10982 10982 10981 10980 10979 10979 10978 10977 10976 10975 10973 10972 10971
11023 11023 11024 11024 11025 11025 11026 11026 11026 11026 11026 11026 11025 11024 11024 11024 11024 11023 11023 11023 11023 11023 11022 11022 11021 11021 11020 11019 11019 11018 11016 11015 11014 11013 11012 11010 11009 11007 11005 11003 11002 11001 10999 10998 10998 10997 10996 10996 10996 10995 10994 10994 10993 10992 10992 10992 10991 10991 10991 10991 10991 10991 10991 10990 10990 10990 10989 10989 10988 10988 10987 10986 10985 10985 10984 10984 10983 10982 10981 10980 10979 10978 10977 10976 10976
11023 11023 11023 11023 11024 11025 11025 11025 11026 11026 11026 11026 11026 11025 11024 11023 11023 11023 11023 11023 11022 11022 11022 11022 11022 11021 11021 11020 11019 11018 11017 11016 11015 11014 11013 11012 11010 11009 11007 11005 11004 11002 11001 11000 10999 10999 10998 10998 10997 10997 10996 10996 10995 10995 10994 10994 10994 10994 10994 10994 10994 10994 10994 10994 10993 10993 10992 10992 10991 10990 10990 10989 10988 10988 10987 10986 10986 10985 10984 10983 10982 10982 10981 10980 10979
11022 11022 11022 11022 11023 11024 11024 11025 11025 11025 11025 11025 11025 11025 11024 11023 11022 11022 11022 11022 11022 11022 11022 11022 11022 11021 11021 11020 11019 11018 11018 11016 11015 11015 11014 11013 11011 11010 11009 11007 11006 11004 11003 11002 11001 11000 11000 11000 10999 10999 10998 10998 10997 10997 10997 10996 10996 10997 10997 10997 10997 10997 10997 10996 10996 10995 10995 10994 10994 10993 10993 10992 10991 10991 10990 10990 10989 10988 10987 10987 10986 10985 10984 10983 10983
11020 11021 11021 11021 11022 11022 11023 11024 11024 11025 11025 11024 11024 11023 11023 11022 11022 11021 11021 11021 11021 11021 11021 11021 11021 11021 11021 11020 11020 11019 11018 11017 11016 11015 11014 11013 11012 11011 11009 11008 11007 11006 11005 11004 11003 11002 11002 11001 11001 11001 11000 10999 10999 10999 10999 10999 10999 10999 10999 10999 10999 10999 10999 10999 10999 10998 10998 10997 10997 10996 10996 10995 10995 10994 10993 10993 10992 10991 10990 10990 10989 10988 10987 10987 10986
11019 11020 11020 11021 11021 11021 11022 11023 11024 11024 11024 11023 11023 11022 11021 11021 11021 11020 11020 11020 11020 11020 11021 11021 11021 11021 11021 11020 11020 11019 11018 11017 11016 11015 11014 11013 11012 11011 11010 11009 11009 11008 11006 11005 11005 11004 11003 11003 11002 11002 11002 11001 11001 11001 11001 11001 11001 11001 11001 11001 11001 11001 11001 11001 11001 11001 11000 11000 10999 10999 10998 10998 10997 10997 10996 10995 10994 10994 10993 10992 10992 10991 10990 10989 10989
11017 11018 11018 11019 11019 11020 11021 11022 11022 11023 11023 11022 11021 11021 11020 11020 11019 11019 11019 11019 11019 11019 11020 11020 11021 11021 11021 11021 11020 11019 11018 11017 11016 11015 11014 11013 11012 11011 11011 11010 11010 11009 11008 11007 11006 11006 11005 11004 11004 11004 11003 11003 11003 11003 11003 11003 11003 11003 11002 11002 11002 11002 11002 11002 11002 11002 11002 11001 11001 11000 11000 11000 10999 10999 10998 10997 10996 10996 10995 10994 10994 10993 10992 10992 10991
11015 11016 11016 11017 11018 11018 11019 11020 11021 11021 11022 11021 11020 11019 11019 11018 11018 11018 11018 11018 11018 11018 11019 11019 11020 11020 11020 11020 11020 11020 11018 11017 11016 11015 11014 11013 11012 11011 11011 11011 11011 11010 11010 11009 11008 11007 11007 11006 11005 11005 11005 11004 11004 11004 11004 11004 11004 11004 11004 11003 11003 11003 11003 11003 11003 11003 11003 11002 11002 11002 11001 11001 11000 11000 10999 10999 10998 10997 10997 10996 10995 10995 10994 10993 10993
11012 11013 11014 11015 11016 11016 11016 11017 11018 11019 11019 11019 11019 11018 11018 11018 11017 11017 11017 11017 11017 11017 11017 11017 11017 11018 11018 11018 11018 11019 11018 11017 11016 11015 11014 11013 11012 11011 11011 11011 11011 11011 11010 11010 11009 11009 11008 11007 11007 11006 11006 11005 11005 11005 11005 11004 11004 11004 11004 11004 11004 11004 11004 11004 11004 11003 11003 11003 11003 11002 11002 11002 11001 11001 11000 11000 10999 10999 10998 10997 10996 10996 10995 10994 10994
11009 11010 11012 11013 11013 11014 11014 11014 11015 11016 11017 11017 11017 11017 11017 11017 11016 11016 11016 11015 11015 11015 11015 11015 11015 11015 11016 11016 11016 11016 11016 11016 11016 11015 11014 11013 11012 11011 11010 11010 11010 11010 11010 11010 11009 11009 11009 11008 11008 11007 11007 11006 11006 11006 11005 11005 11005 11005 11005 11005 11005 11005 11004 11004 11004 11004 11004 11004 11004 11003 11003 11003 11002 11002 11001 11001 11000 10999 10998 10998 10997 10996 10996 10995 10995
11006 11007 11009 11010 11010 11010 11011 11011 11012 11012 11013 11014 11015 11015 11015 11015 11015 11014 11014 11013 11012 11012 11012 11012 11012 11013 11013 11013 11014 11014 11014 11014 11014 11013 11013 11012 11011 11010 11009 11009 11009 11009 11009 11009 11009 11009 11008 11008 11008 11008 11007 11007 11006 11006 11006 11005 11005 11005 11005 11005 11005 11005 11005 11005 11005 11005 11005 11004 11004 11004 11003 11003 11003 11002 11001 11001 11000 10999 10999 10998 10997 10997 10996 10996 10995
11004 11004 11005 11006 11007 11007 11007 11008 11008 11009 11010 11011 11012 11012 11013 11013 11012 11012 11012 11011 11010 11010 11010 11010 11011 11011 11011 11011 11011 11012 11012 11012 11011 11011 11011 11010 11010 11009 11008 11008 11008 11008 11008 11007 11007 11007 11008 11008 11008 11008 11008 11007 11007 11006 11006 11006 11005 11005 11005 11005 11005 11005 11005 11005 11005 11005 11004 11004 11004 11004 11003 11003 11002 11002 11001 11001 11000 10999 10999 10998 10997 10997 10996 10996 10995
11003 11002 11000 11001 11002 11002 11003 11004 11005 11006 11007 11008 11008 11009 11009 11009 11009 11009 11009 11009 11008 11008 11008 11008 11009 11009 11009 11009 11009 11009 11009 11009 11009 11009 11009 11008 11008 11008 11007 11007 11007 11007 11007 11007 11006 11006 11006 11007 11007 11007 11007 11007 11007 11006 11006 11006 11005 11005 11005 11004 11004 11004 11004 11004 11004 11004 11003 11003 11003 11003 11002 11002 11002 11001 11001 11000 10999 10999 10998 10998 10997 10997 10996 10996 10995
11001 10999 10997 10997 10998 10999 11000 11001 11002 11004 11004 11004 11005 11005 11005 11005 11005 11006 11006 11006 11005 11005 11006 11006 11006 11007 11007 11007 11008 11008 11008 11008 11008 11008 11007 11006 11006 11006 11006 11006 11005 11006 11006 11006 11005 11005 11005 11005 11006 11006 11006 11006 11006 11006 11005 11005 11005 11004 11004 11004 11003 11003 11003 11003 11002 11002 11002 11002 11002 11002 11001 11001 11000 11000 11000 10999 10999 10998 10998 10997 10996 10996 10995 10995 10994
10997 10996 10994 10994 10996 10998 10999 11000 11000 11000 10999 11000 11001 11001 11001 11001 11001 11001 11001 11001 11002 11002 11003 11004 11004 11005 11005 11006 11006 11007 11007 11007 11006 11006 11005 11004 11003 11003 11003 11004 11004 11004 11005 11005 11003 11003 11003 11004 11004 11004 11005 11005 11004 11004 11004 11004 11003 11003 11003 11003 11002 11002 11001 11001 11001 11001 11001 11000 11000 11000 11000 10999 10999 10998 10998 10998 10997 10997 10996 10996 10995 10995 10995 10994 10993
10989 10990 10990 10990 10992 10995 10998 11000 10999 10996 10995 10995 10996 10996 10996 10996 10996 10996 10996 10996 10997 10999 11000 11001 11001 11002 11003 11004 11005 11005 11005 11005 11004 11003 11003 11002 11001 11001 11001 11001 11001 11003 11004 11003 11001 11001 11001 11002 11002 11002 11002 11002 11002 11002 11002 11002 11001 11001 11001 11001 11000 11000 11000 10999 10999 10999 10999 10999 10998 10998 10998 10997 10997 10997 10996 10996 10995 10995 10994 10994 10994 10993 10993 10993 10992